Date,TemperatureHighF,TemperatureAvgF,TemperatureLowF,DewpointHighF,DewpointAvgF,DewpointLowF,HumidityHigh,HumidityAvg,HumidityLow,PressureMaxIn,PressureMinIn,WindSpeedMaxMPH,WindSpeedAvgMPH,GustSpeedMaxMPH,PrecipitationSumIn
2013-1-1,28.7,24.6,15.7,21.0,17.2,9.5,82,73,62,29.97,29.86,6,0,6,0.00
2013-1-2,25.0,17.3,11.6,14.2,9.8,4.0,82,72,61,30.02,29.94,5,0,5,0.00
2013-1-3,30.1,22.8,10.9,24.3,16.0,3.7,82,75,67,30.03,29.92,12,0,12,0.00
2013-1-4,28.5,22.1,14.1,20.4,15.8,9.0,83,76,66,30.05,29.95,11,0,11,0.00
2013-1-5,35.2,26.9,17.3,29.9,21.8,14.3,91,81,64,30.07,29.81,7,0,7,0.00
2013-1-6,33.8,32.1,29.0,30.1,27.2,22.7,86,82,76,30.11,29.71,7,0,7,0.00
2013-1-7,34.9,27.3,18.8,25.6,20.4,15.6,90,76,58,30.18,29.95,14,0,14,0.01
2013-1-8,38.2,30.9,25.7,27.0,23.8,20.2,83,75,62,30.02,29.90,7,0,7,0.04
2013-1-9,46.1,38.4,29.5,32.3,27.5,22.5,86,66,46,30.27,29.84,15,0,15,0.05
2013-1-10,40.8,32.7,24.1,34.8,26.5,21.1,93,78,59,30.33,29.83,13,2,13,0.25
2013-1-11,51.9,46.4,36.6,51.4,44.8,33.9,98,94,86,29.84,29.53,10,1,10,0.53
2013-1-12,57.0,50.0,38.2,47.9,43.4,34.3,91,78,63,29.74,29.56,7,0,7,0.25
2013-1-13,39.1,32.0,22.1,35.9,30.4,18.8,95,94,87,29.96,29.60,10,0,10,0.29
2013-1-14,24.7,20.9,15.7,18.8,15.1,10.4,87,78,70,30.26,29.95,7,0,7,0.00
2013-1-15,29.4,20.3,11.7,19.2,13.8,8.1,90,76,58,30.24,29.96,5,0,5,0.00
2013-1-16,34.7,26.3,17.2,27.0,18.8,13.5,91,74,50,29.99,29.67,11,0,0,0.00
2013-1-17,33.2,28.5,21.6,27.2,20.0,12.2,84,71,56,30.17,29.81,18,1,0,0.00
2013-1-18,36.8,28.8,19.9,25.6,18.5,12.0,77,65,58,30.23,29.78,13,1,0,0.01
2013-1-19,47.0,40.6,34.7,34.3,30.5,25.2,78,67,56,29.79,29.51,16,1,0,0.04
2013-1-20,41.5,21.3,17.2,28.7,11.4,7.8,74,66,44,30.05,29.53,17,1,0,0.00
2013-1-21,18.9,13.3,8.1,8.7,5.8,1.7,82,72,54,30.01,29.89,11,0,0,0.00
2013-1-22,12.1,7.4,5.2,4.4,1.4,-1.9,82,76,64,30.16,30.00,5,0,0,0.00
2013-1-23,18.1,13.2,7.6,14.5,6.3,1.4,87,74,58,30.13,29.90,6,0,0,0.00
2013-1-24,18.0,12.7,6.1,13.0,4.2,-2.7,87,70,42,30.44,29.97,9,0,0,0.00
2013-1-25,25.0,20.1,15.4,20.0,12.7,2.8,87,73,58,30.28,29.80,7,0,0,0.00
2013-1-26,28.8,24.4,19.4,20.5,17.9,14.1,87,76,68,30.23,29.86,7,0,0,0.00
2013-1-27,32.7,26.0,18.8,30.6,20.1,14.5,92,78,68,30.24,29.82,17,2,0,0.00
2013-1-28,46.0,40.1,32.8,45.5,39.4,29.8,98,97,92,29.83,29.65,10,0,0,0.79
2013-1-29,56.5,51.4,37.6,56.2,51.1,37.1,99,99,98,29.75,29.18,12,1,0,0.45
2013-1-30,52.6,43.0,26.3,51.4,42.5,25.1,99,98,95,29.26,28.95,11,0,0,0.80
2013-1-31,26.6,17.7,11.9,25.4,14.4,8.5,95,86,77,29.83,29.26,6,0,13,0.00
2013-2-1,13.6,8.6,4.8,8.5,3.7,-0.3,86,80,67,30.15,29.82,3,0,0,0.00
2013-2-2,26.3,17.5,5.8,24.0,14.2,1.1,91,87,82,30.05,29.77,0,0,0,0.00
2013-2-3,23.3,16.9,12.1,19.5,12.8,8.5,86,84,81,29.85,29.74,6,0,0,0.00
2013-2-4,26.4,21.6,17.3,21.8,18.1,12.8,91,86,81,29.85,29.66,4,0,0,0.00
2013-2-5,32.4,23.4,11.6,26.4,19.6,8.2,93,85,69,29.81,29.61,6,0,0,0.01
2013-2-6,33.4,27.8,22.1,25.2,21.5,18.8,91,78,58,30.06,29.80,6,0,0,0.00
2013-2-7,40.2,32.4,26.0,31.3,26.0,21.3,93,78,62,29.99,29.61,8,1,0,0.30
2013-2-8,33.2,30.1,25.6,31.3,24.6,19.7,94,80,67,30.17,29.61,15,2,0,0.02
2013-2-9,33.5,25.5,15.2,23.0,18.9,11.5,90,76,63,30.22,29.98,11,1,0,0.00
2013-2-10,44.8,35.9,28.2,43.7,30.3,20.3,96,80,69,29.99,29.37,11,2,0,0.09
2013-2-11,45.8,35.4,29.7,45.0,27.3,21.2,97,72,66,29.77,29.35,18,2,0,0.01
2013-2-12,30.9,28.8,26.4,22.2,21.4,19.5,78,74,66,29.90,29.75,11,0,0,0.00
2013-2-13,42.2,31.1,20.2,29.0,23.8,16.4,91,75,57,29.76,29.52,8,0,0,0.00
2013-2-14,39.6,35.0,30.3,32.3,28.4,21.6,90,77,62,29.74,29.49,12,0,0,0.00
2013-2-15,32.9,30.0,27.8,24.3,22.5,21.1,82,74,64,29.81,29.73,10,0,0,0.00
2013-2-16,22.4,16.0,10.4,17.8,8.5,3.6,84,72,58,29.95,29.88,9,0,13,0.00
2013-2-17,27.2,19.5,11.6,15.7,10.7,6.9,88,70,43,30.03,29.93,6,0,0,0.03
2013-2-18,50.4,37.1,22.9,42.5,27.1,12.4,91,67,55,29.94,29.25,18,2,0,0.11
2013-2-19,43.6,20.4,14.6,41.3,15.7,9.4,92,82,70,29.89,29.22,14,1,14,0.15
2013-2-20,24.7,19.1,14.6,18.5,14.8,10.7,87,83,75,30.13,29.88,10,0,10,0.00
2013-2-21,26.1,22.9,19.5,18.3,16.5,14.0,87,76,66,30.19,29.89,16,1,16,0.02
2013-2-22,32.8,26.6,20.5,31.5,24.3,14.0,95,91,73,29.91,29.65,13,1,13,0.00
2013-2-23,31.5,27.1,24.8,24.5,20.1,17.1,86,75,59,29.76,29.70,10,0,10,0.01
2013-2-24,36.5,27.8,21.0,23.7,20.1,16.4,83,73,55,29.96,29.74,5,0,9,0.05
2013-2-25,39.6,30.0,19.9,25.8,22.0,17.3,92,73,52,30.01,29.83,6,0,9,0.10
2013-2-26,34.1,32.1,30.0,31.2,26.7,21.6,95,81,63,29.85,29.26,15,1,15,0.22
2013-2-27,36.8,33.3,32.1,35.5,31.8,30.3,97,94,90,29.40,29.26,3,0,9,0.31
2013-2-28,37.9,33.5,30.9,32.9,29.7,25.9,95,86,73,29.78,29.40,7,1,9,0.21
2013-3-1,34.6,30.3,25.8,26.4,22.1,16.7,83,72,57,29.95,29.78,9,0,9,0.00
2013-3-2,30.7,26.6,23.0,19.3,17.4,13.6,76,68,58,29.94,29.89,15,1,15,0.00
2013-3-3,31.6,24.8,17.8,18.8,14.7,11.3,78,66,49,29.92,29.85,11,0,11,0.00
2013-3-4,35.2,25.4,14.4,21.8,15.6,10.7,89,68,41,29.96,29.84,7,0,9,0.00
2013-3-5,32.7,29.5,26.4,26.9,24.1,20.1,93,81,66,29.87,29.58,11,1,11,0.00
2013-3-6,36.6,31.0,25.7,29.0,26.2,23.4,93,83,69,30.05,29.66,12,1,12,0.21
2013-3-7,38.0,32.5,24.1,31.4,26.1,19.4,92,78,59,30.22,30.05,7,0,7,0.21
2013-3-8,37.6,27.8,16.7,23.7,19.1,13.8,93,71,49,30.31,30.19,6,0,6,0.03
2013-3-9,42.1,34.7,26.0,32.0,26.0,19.2,79,70,56,30.20,29.74,12,2,12,0.00
2013-3-10,57.0,47.9,38.2,43.3,38.3,31.5,92,70,57,29.75,29.48,9,1,9,0.10
2013-3-11,50.5,42.5,33.4,46.8,39.5,29.7,97,89,68,29.54,29.31,10,0,10,0.14
2013-3-12,35.2,32.1,28.2,29.8,26.7,23.0,90,81,62,29.75,29.55,15,0,15,0.01
2013-3-13,29.1,26.7,20.8,25.4,21.0,12.2,91,80,55,30.10,29.75,12,1,12,0.10
2013-3-14,41.6,30.1,17.2,27.2,18.8,11.7,86,65,37,30.12,29.91,7,0,5,0.04
2013-3-15,46.7,36.7,29.0,37.0,31.6,26.5,93,83,62,29.91,29.58,5,0,0,0.08
2013-3-16,37.3,33.2,27.9,35.7,29.7,20.0,98,87,71,29.90,29.46,11,1,0,0.00
2013-3-17,36.3,30.5,27.0,23.0,19.6,17.2,77,64,48,30.02,29.87,12,1,0,0.00
2013-3-18,34.1,30.2,26.9,32.8,26.6,18.4,95,86,70,29.87,29.39,12,1,0,0.05
2013-3-19,31.9,27.0,19.5,21.0,15.7,12.1,79,62,50,29.73,29.54,16,2,16,0.01
2013-3-20,27.8,22.2,21.1,16.4,12.6,11.3,70,66,61,29.84,29.78,10,1,10,0.00
2013-3-21,30.4,25.6,15.6,21.1,16.5,11.6,89,68,60,29.83,29.76,10,0,10,0.08
2013-3-22,37.9,22.3,16.7,21.6,15.5,12.9,88,76,43,29.85,29.82,6,0,6,0.00
2013-3-23,37.5,28.6,21.0,23.2,20.3,16.9,89,72,54,29.94,29.82,2,0,10,0.00
2013-3-24,36.9,34.1,26.4,24.9,23.6,21.0,80,65,56,29.82,29.42,14,2,14,0.00
2013-3-25,36.0,33.7,29.3,26.9,25.3,21.7,77,71,64,29.79,29.40,15,2,14,0.00
2013-3-26,40.9,34.2,30.3,31.7,27.5,24.6,89,77,56,30.01,29.79,12,0,0,0.01
2013-3-27,44.1,34.8,27.3,33.8,24.5,17.1,93,69,40,30.10,30.00,14,0,0,0.01
2013-3-28,50.1,35.4,24.7,29.4,20.8,17.4,87,58,32,30.13,30.08,10,0,0,0.00
2013-3-29,51.9,36.9,24.8,25.9,19.0,15.3,82,52,26,30.12,30.04,12,0,0,0.00
2013-3-30,56.9,41.0,23.8,33.9,24.8,15.2,77,54,34,30.04,29.69,9,0,0,0.00
2013-3-31,59.9,47.5,38.0,43.0,35.7,26.2,92,65,35,29.69,29.46,12,1,0,0.02
2013-4-1,38.2,32.5,24.4,29.1,17.9,11.6,75,56,37,29.95,29.60,15,1,0,0.00
2013-4-2,41.2,30.8,21.9,19.6,13.4,6.7,77,52,25,30.10,29.94,12,1,0,0.00
2013-4-3,46.1,32.3,20.5,19.1,13.5,6.8,74,49,21,30.24,30.09,14,1,0,0.00
2013-4-4,57.2,39.6,24.2,23.5,18.4,15.6,77,47,20,30.15,29.75,7,0,0,0.00
2013-4-5,51.4,40.3,29.8,30.0,24.1,15.5,79,55,27,30.00,29.74,12,1,0,0.00
2013-4-6,64.7,48.0,29.8,44.7,28.5,22.8,77,49,31,29.97,29.48,16,3,0,0.01
2013-4-7,60.1,51.6,42.2,47.3,39.5,33.3,78,64,48,29.77,29.41,10,1,0,0.03
2013-4-8,68.6,49.7,40.6,56.1,41.5,32.8,95,74,53,29.78,29.45,18,2,0,0.07
2013-4-9,75.4,55.7,39.2,59.7,47.3,36.0,93,75,52,29.80,29.58,10,1,2,0.00
2013-4-10,55.1,46.6,40.8,49.1,43.7,39.5,95,90,80,29.74,29.61,12,1,0,0.09
2013-4-11,42.3,41.3,39.2,41.3,40.3,38.4,97,96,95,29.69,29.39,13,2,0,1.64
2013-4-12,44.2,39.3,36.3,38.5,36.5,31.2,97,90,74,29.63,29.37,12,0,0,0.17
2013-4-13,44.1,38.4,34.4,32.8,29.6,25.9,87,71,51,29.79,29.63,12,0,0,0.00
2013-4-14,60.4,46.1,35.2,45.1,35.7,27.9,82,68,52,29.83,29.58,15,2,0,0.00
2013-4-15,65.5,56.7,45.7,55.9,49.0,42.9,94,76,66,29.73,29.57,12,1,0,0.45
2013-4-16,53.2,45.9,41.5,45.2,38.5,30.4,96,77,47,30.03,29.72,6,0,0,0.43
2013-4-17,46.2,45.2,42.6,36.3,35.4,33.2,72,68,67,30.06,30.01,10,2,0,0.00
2013-4-18,69.6,47.9,46.2,64.2,38.8,35.9,98,71,67,30.01,29.27,5,3,13,0.85
2013-4-19,56.6,38.9,32.8,55.5,32.9,27.7,96,79,68,29.65,29.27,17,1,17,0.29
2013-4-20,42.5,34.9,29.0,30.8,22.8,16.3,91,63,39,30.25,29.65,12,1,12,0.06
2013-4-21,50.8,38.7,26.3,29.3,22.7,17.8,73,54,34,30.36,30.19,13,2,13,0.00
2013-4-22,63.5,49.3,33.5,35.3,30.5,26.8,80,52,26,30.19,29.90,9,1,9,0.00
2013-4-23,65.6,51.0,38.9,53.3,42.3,34.4,94,73,52,29.90,29.64,11,1,10,0.53
2013-4-24,44.5,38.2,34.3,37.3,31.2,20.9,98,78,40,29.95,29.63,14,1,0,0.07
2013-4-25,50.7,41.9,35.9,41.3,31.1,27.0,85,66,43,30.15,29.89,11,0,0,0.03
2013-4-26,63.5,47.7,30.7,40.7,33.8,27.0,90,61,38,30.21,30.09,12,1,0,0.00
2013-4-27,67.6,55.3,39.3,44.8,37.9,30.9,87,56,27,30.12,29.82,11,1,0,0.00
2013-4-28,59.3,54.7,49.9,53.0,49.9,44.3,94,84,58,29.82,29.61,3,0,0,0.15
2013-4-29,72.0,59.3,46.8,56.4,50.2,45.2,97,74,48,29.73,29.64,10,0,0,0.00
2013-4-30,80.3,67.4,56.3,59.9,54.9,50.2,80,66,48,29.77,29.65,14,2,0,0.00
2013-5-1,83.2,70.8,55.7,58.2,54.0,50.3,89,59,34,29.93,29.76,10,1,0,0.00
2013-5-2,80.9,65.2,46.8,58.8,52.4,39.6,80,65,40,29.95,29.87,7,0,0,0.00
2013-5-3,76.8,60.3,43.3,59.0,48.3,38.7,87,67,43,29.89,29.72,10,0,0,0.00
2013-5-4,72.0,64.4,58.4,50.9,43.8,35.3,59,48,27,29.81,29.74,10,1,0,0.00
2013-5-5,73.3,62.5,51.7,50.6,43.5,39.2,68,51,32,29.81,29.75,11,1,0,0.00
2013-5-6,77.9,64.2,54.4,51.8,42.1,27.9,66,47,18,29.80,29.70,9,0,0,0.00
2013-5-7,76.5,63.3,50.4,54.6,48.4,42.4,84,60,39,29.82,29.75,5,0,0,0.00
2013-5-8,79.2,65.1,52.2,55.5,48.7,43.8,91,58,33,29.81,29.74,7,0,0,0.00
2013-5-9,80.3,62.9,48.3,60.6,50.5,43.0,91,68,28,29.76,29.64,12,0,0,0.09
2013-5-10,60.9,54.9,44.9,59.8,52.2,43.0,96,91,74,29.72,29.53,9,0,0,0.10
2013-5-11,56.5,45.9,37.0,49.2,41.2,31.3,96,84,62,29.79,29.61,12,0,0,0.04
2013-5-12,50.4,40.9,33.8,33.9,30.4,26.8,91,67,42,29.92,29.78,11,0,0,0.00
2013-5-13,58.9,45.8,31.3,35.8,28.4,20.7,90,56,23,29.98,29.86,9,0,0,0.00
2013-5-14,84.0,65.3,47.9,58.3,44.1,26.6,64,47,35,29.86,29.45,9,0,0,0.00
2013-5-15,80.1,72.8,59.2,59.5,52.7,44.8,71,51,30,29.60,29.39,12,0,0,0.00
2013-5-16,83.2,66.5,50.1,52.5,46.5,40.6,90,53,23,29.75,29.59,12,0,0,0.00
2013-5-17,81.4,67.1,56.9,58.8,47.8,41.0,68,51,36,29.84,29.74,5,0,0,0.00
2013-5-18,80.7,68.3,58.6,61.4,51.5,39.1,75,55,41,29.87,29.75,4,0,0,0.00
2013-5-19,86.3,69.2,57.3,64.4,56.5,49.5,77,65,43,29.77,29.58,4,0,5,0.00
2013-5-20,87.2,77.4,68.8,70.2,64.7,60.0,90,66,42,29.62,29.53,12,0,0,0.00
2013-5-21,80.5,72.0,63.2,67.8,63.4,59.2,95,75,57,29.57,29.47,12,0,0,0.68
2013-5-22,72.0,66.9,61.2,69.2,63.7,59.2,96,90,77,29.51,29.42,7,0,0,0.32
2013-5-23,61.2,51.5,41.8,59.2,49.1,38.2,94,91,84,30.01,29.51,7,0,0,0.01
2013-5-24,58.0,46.5,36.0,43.9,37.5,33.5,94,73,46,30.18,30.01,10,0,0,0.00
2013-5-25,66.0,50.6,36.9,48.6,40.1,33.7,95,71,34,30.19,30.06,4,0,0,0.00
2013-5-26,71.1,56.8,41.8,48.6,42.2,37.6,90,61,32,30.10,29.96,4,0,0,0.00
2013-5-27,59.8,55.5,52.0,55.0,49.3,37.1,96,82,43,29.96,29.70,6,0,0,0.46
2013-5-28,78.1,67.3,55.1,70.6,63.5,54.0,98,88,71,29.70,29.56,24,0,0,0.53
2013-5-29,80.7,70.2,61.6,70.9,64.5,59.3,97,83,64,29.76,29.59,11,0,0,0.11
2013-5-30,84.0,73.9,64.0,71.2,65.4,60.7,95,76,55,29.78,29.66,11,0,0,0.02
2013-5-31,75.8,70.3,65.0,68.7,65.2,60.4,95,84,70,29.73,29.51,12,0,0,0.42
2013-6-1,73.2,68.0,63.1,66.3,63.0,60.0,96,85,71,29.60,29.47,5,0,0,0.13
2013-6-2,63.9,56.4,43.8,60.0,50.9,40.5,95,82,64,29.82,29.48,9,0,0,0.13
2013-6-3,67.4,52.4,39.1,50.8,42.5,36.7,96,72,40,29.90,29.82,6,0,0,0.00
2013-6-4,73.5,58.4,43.8,55.9,47.3,40.6,95,70,38,29.97,29.88,4,0,0,0.00
2013-6-5,75.1,65.1,56.5,57.4,48.7,44.3,79,56,40,29.91,29.71,7,0,0,0.00
2013-6-6,72.0,63.3,58.0,57.6,50.6,43.4,75,64,44,29.73,29.62,5,0,0,0.00
2013-6-7,72.5,61.0,51.0,57.5,50.4,44.7,92,70,47,29.70,29.64,10,0,0,0.00
2013-6-8,73.9,61.6,47.9,60.1,51.0,43.2,94,70,48,29.80,29.69,7,0,0,0.00
2013-6-9,79.0,69.2,58.7,65.2,58.3,51.6,87,69,50,29.81,29.63,4,0,0,0.00
2013-6-10,71.8,71.6,71.6,61.3,61.0,60.9,70,69,69,29.63,29.63,1,0,0,0.00
2013-6-11,82.2,74.5,60.7,70.2,64.9,58.6,95,73,54,29.71,29.61,6,0,6,0.00
2013-6-12,84.0,72.6,65.3,76.2,68.4,62.1,96,87,66,29.68,29.39,4,0,1,0.28
2013-6-13,75.3,65.6,55.6,63.7,58.5,51.5,97,79,53,29.77,29.30,10,0,0,0.14
2013-6-14,77.6,63.2,52.0,63.0,55.4,50.0,97,78,48,29.89,29.76,6,0,0,0.00
2013-6-15,74.0,64.5,55.7,67.0,60.3,53.0,97,87,66,29.86,29.68,3,0,0,0.03
2013-6-16,81.2,71.4,64.3,69.4,62.9,54.8,93,76,48,29.69,29.63,6,0,0,0.01
2013-6-17,84.9,71.6,63.5,68.5,61.2,51.3,95,73,33,29.71,29.63,5,0,0,0.11
2013-6-18,75.1,65.4,60.2,64.0,58.2,48.7,96,79,56,29.84,29.65,9,0,0,0.04
2013-6-19,76.3,63.4,49.8,55.4,48.0,40.9,87,59,31,29.94,29.83,3,0,0,0.00
2013-6-20,82.6,68.0,54.4,65.7,56.6,47.2,92,69,39,29.97,29.89,3,0,0,0.00
2013-6-21,83.4,71.7,63.7,70.2,64.3,60.3,92,79,52,29.93,29.77,7,0,0,0.05
2013-6-22,83.6,72.8,65.5,74.7,68.6,63.5,97,87,67,29.86,29.75,5,0,0,0.00
2013-6-23,86.5,75.1,64.8,72.2,66.5,62.2,95,76,51,29.85,29.74,9,0,0,0.00
2013-6-24,84.0,74.1,65.8,71.8,67.0,63.7,94,80,55,29.85,29.68,15,0,0,0.55
2013-6-25,85.3,72.6,65.5,76.9,69.5,63.7,98,91,66,29.77,29.57,8,0,0,0.74
2013-6-26,81.6,71.2,64.8,74.9,68.2,63.9,98,91,66,29.68,29.50,5,0,0,0.43
2013-6-27,83.2,73.2,65.5,74.0,68.3,63.4,97,85,63,29.54,29.43,6,0,0,0.02
2013-6-28,78.6,70.4,62.7,67.9,63.2,59.1,97,79,55,29.45,29.36,9,0,0,0.01
2013-6-29,77.6,65.5,60.9,66.2,61.9,58.6,95,89,59,29.51,29.33,3,0,0,0.29
2013-6-30,78.1,67.1,60.5,66.5,60.3,54.9,97,81,51,29.73,29.50,6,0,0,0.02
2013-7-1,75.8,65.7,56.7,62.5,51.7,42.1,76,61,48,29.82,29.72,11,0,0,0.00
2013-7-2,64.8,61.8,58.3,62.5,57.7,50.7,96,87,62,29.84,29.79,7,0,0,0.70
2013-7-3,77.6,68.5,62.6,69.4,64.1,60.7,98,87,64,29.86,29.77,7,0,0,0.00
2013-7-4,77.4,67.8,59.3,67.3,61.9,57.6,97,82,56,29.91,29.85,3,0,0,0.00
2013-7-5,78.1,70.1,61.2,71.5,64.3,59.2,96,82,62,29.90,29.80,0,0,0,0.00
2013-7-6,78.3,72.1,66.4,71.7,67.4,64.0,96,85,73,29.86,29.76,1,0,0,0.00
2013-7-7,82.6,74.0,67.4,72.5,68.8,65.0,94,85,65,29.81,29.74,5,0,0,0.00
2013-7-8,78.6,74.0,71.3,72.9,70.3,68.2,94,88,77,29.83,29.73,5,0,0,0.31
2013-7-9,86.1,75.1,69.6,78.8,72.9,68.4,98,93,72,29.78,29.64,6,0,0,0.54
2013-7-10,82.6,74.5,61.6,78.0,68.1,55.3,98,82,57,29.77,29.60,11,0,0,0.00
2013-7-11,78.5,67.2,57.2,65.4,56.3,52.1,97,70,45,29.86,29.77,6,0,0,0.00
2013-7-12,81.1,67.8,54.7,66.0,57.1,52.2,98,71,42,29.93,29.84,2,0,0,0.00
2013-7-13,83.4,70.0,58.9,69.9,62.1,55.8,96,77,53,29.95,29.90,4,0,0,0.00
2013-7-14,87.8,75.8,65.8,74.5,68.0,62.7,95,78,53,29.99,29.93,4,0,0,0.00
2013-7-15,87.4,76.5,69.9,79.7,73.4,67.3,97,90,63,30.05,29.99,1,0,0,0.24
2013-7-16,89.0,79.0,71.8,76.6,72.7,68.6,97,82,55,30.10,30.03,4,0,0,0.00
2013-7-17,88.8,79.2,71.8,78.4,73.3,69.7,96,83,59,30.09,29.95,5,0,0,0.00
2013-7-18,87.6,78.2,72.5,80.4,73.8,70.3,97,87,61,29.96,29.74,2,0,0,0.20
2013-7-19,91.6,81.7,74.6,76.9,73.1,69.5,94,76,52,29.75,29.53,9,0,0,0.00
2013-7-20,85.5,77.1,67.1,73.1,68.2,59.9,92,75,49,29.70,29.53,6,0,0,0.00
2013-7-21,85.3,72.9,63.9,72.6,65.4,60.6,92,79,50,29.75,29.64,6,0,0,0.23
2013-7-22,82.2,71.6,65.5,70.6,66.6,63.5,98,85,57,29.73,29.53,9,0,0,0.80
2013-7-23,78.8,68.9,58.3,69.8,63.2,51.3,96,83,61,29.71,29.47,14,0,0,0.03
2013-7-24,73.2,61.1,50.4,55.9,51.4,47.5,92,72,47,29.83,29.71,10,0,0,0.00
2013-7-25,76.0,62.9,52.3,62.8,55.8,50.0,96,79,51,29.89,29.83,5,0,0,0.00
2013-7-26,73.9,65.2,57.6,63.4,59.6,54.0,95,83,63,29.86,29.66,7,0,0,0.04
2013-7-27,71.1,63.4,55.6,65.2,58.5,49.3,96,84,68,29.68,29.60,7,0,0,0.00
2013-7-28,65.2,57.7,52.2,54.7,50.7,47.6,90,78,65,29.79,29.64,5,0,0,0.01
2013-7-29,71.6,60.9,53.1,60.4,55.0,49.4,94,82,61,29.97,29.78,6,0,0,0.00
2013-7-30,75.6,63.4,52.0,63.8,57.6,50.3,98,83,56,30.00,29.88,3,0,0,0.00
2013-7-31,69.8,66.2,63.1,68.0,64.1,60.4,95,93,88,29.88,29.72,2,0,0,0.15
2013-8-1,76.7,67.1,58.4,67.8,59.9,52.9,98,80,49,29.75,29.71,5,0,0,0.00
2013-8-2,76.0,64.8,56.6,72.1,61.7,53.0,97,90,73,29.75,29.62,6,0,0,0.52
2013-8-3,77.9,68.3,58.0,66.6,60.0,50.8,96,77,45,29.87,29.69,6,0,0,0.00
2013-8-4,74.9,63.4,55.6,59.7,54.7,50.2,95,75,47,29.98,29.87,6,0,0,0.00
2013-8-5,72.1,62.0,51.4,63.5,56.5,48.6,95,83,65,29.92,29.71,4,0,0,0.09
2013-8-6,77.4,66.3,62.9,71.2,63.0,59.5,93,89,77,29.73,29.63,4,0,4,0.54
2013-8-7,78.3,70.0,66.9,72.7,67.9,64.8,98,93,77,29.69,29.59,2,0,0,0.27
2013-8-8,76.5,67.9,61.5,66.6,62.0,57.7,96,82,60,29.79,29.69,7,0,0,0.00
2013-8-9,79.0,67.6,58.9,66.6,61.1,56.7,96,81,53,29.79,29.74,2,0,0,0.00
2013-8-10,79.4,69.8,60.9,65.4,62.2,56.5,93,78,51,29.90,29.79,5,0,0,0.00
2013-8-11,77.9,66.0,57.2,65.3,59.1,55.2,96,80,51,29.91,29.83,4,0,0,0.00
2013-8-12,80.5,70.0,64.5,70.1,65.3,61.7,95,86,64,29.83,29.63,4,0,0,0.11
2013-8-13,69.3,61.5,52.8,64.0,54.1,48.0,95,78,50,29.90,29.67,10,0,0,0.01
2013-8-14,69.8,56.5,45.8,54.7,48.9,44.5,97,78,45,30.00,29.90,7,0,0,0.00
2013-8-15,73.3,58.0,46.8,59.5,51.8,45.5,98,82,53,29.98,29.89,7,0,0,0.00
2013-8-16,77.0,62.5,50.8,59.0,52.9,47.4,97,74,40,29.97,29.91,5,0,0,0.00
2013-8-17,77.6,65.1,54.5,61.7,55.8,50.7,96,74,43,30.03,29.95,10,0,0,0.00
2013-8-18,80.7,65.9,55.9,66.9,58.7,53.3,96,79,50,30.00,29.89,3,0,0,0.00
2013-8-19,81.1,67.4,57.5,66.7,60.6,55.8,97,81,49,29.92,29.83,1,0,0,0.00
2013-8-20,82.8,70.6,60.9,68.7,64.0,58.7,97,80,55,29.93,29.84,5,0,0,0.00
2013-8-21,85.3,73.5,64.2,69.9,65.3,61.9,96,77,51,29.90,29.76,5,0,0,0.00
2013-8-22,76.0,70.0,65.3,72.5,67.1,63.2,97,91,78,29.88,29.77,11,0,0,0.58
2013-8-23,79.6,69.0,58.7,65.6,59.4,50.4,96,75,37,29.96,29.86,6,0,0,0.00
2013-8-24,80.9,65.8,55.6,61.5,56.7,52.8,96,75,38,30.08,29.96,2,0,0,0.00
2013-8-25,84.3,69.5,57.5,68.6,61.3,55.5,96,77,51,30.07,29.94,6,0,0,0.00
2013-8-26,84.9,74.5,65.2,74.5,66.8,60.3,85,77,64,29.96,29.79,5,0,0,0.00
2013-8-27,89.0,78.4,71.1,76.7,70.5,67.7,92,78,58,29.79,29.61,6,0,0,0.00
2013-8-28,84.1,76.8,70.3,75.2,70.2,66.7,90,81,69,29.79,29.60,5,0,0,0.00
2013-8-29,85.7,73.3,64.3,71.4,66.1,61.7,97,80,46,29.85,29.76,4,0,0,0.00
2013-8-30,89.0,76.3,66.0,73.8,68.9,63.9,96,80,53,29.76,29.53,6,0,0,0.00
2013-8-31,77.6,72.5,68.8,71.2,68.3,66.2,93,87,73,29.63,29.54,4,0,0,0.01
2013-9-1,82.2,73.2,67.3,72.9,68.6,65.5,96,86,68,29.59,29.51,4,0,0,0.06
2013-9-2,77.4,68.3,55.7,69.0,61.8,52.5,95,81,53,29.76,29.52,7,0,0,0.02
2013-9-3,74.9,60.6,52.8,59.8,54.8,51.1,95,83,54,29.85,29.75,5,0,0,0.00
2013-9-4,78.1,63.3,53.9,62.2,55.7,51.9,98,79,46,29.91,29.83,6,0,0,0.00
2013-9-5,77.2,63.5,53.2,59.0,50.5,36.7,95,67,25,30.03,29.89,7,0,0,0.00
2013-9-6,79.0,63.5,50.4,63.2,53.5,46.3,89,72,41,30.05,29.83,1,0,0,0.00
2013-9-7,86.3,70.2,59.9,67.7,62.1,55.3,94,77,46,29.84,29.68,5,0,0,0.02
2013-9-8,76.0,69.3,64.3,67.3,64.0,61.4,96,84,66,29.82,29.71,9,0,0,0.01
2013-9-9,87.4,73.7,63.1,72.5,64.0,53.3,82,72,58,29.80,29.63,6,0,0,0.00
2013-9-10,92.9,80.6,72.5,70.4,66.9,60.5,88,66,36,29.79,29.66,7,0,0,0.00
2013-9-11,91.6,77.2,69.6,72.0,69.2,64.0,95,78,44,29.82,29.71,11,0,0,0.32
2013-9-12,79.8,69.0,58.4,68.4,60.0,48.6,96,76,39,29.82,29.66,6,0,0,0.00
2013-9-13,64.8,55.4,46.0,50.2,44.9,41.5,93,69,45,29.93,29.82,11,0,0,0.00
2013-9-14,68.4,52.7,41.1,48.1,42.5,35.8,98,72,34,30.00,29.86,3,0,0,0.00
2013-9-15,62.0,54.3,47.4,57.8,49.5,41.4,93,84,74,29.92,29.81,2,0,0,0.02
2013-9-16,66.0,57.2,49.8,53.6,50.0,43.2,95,78,52,30.13,29.92,6,0,0,0.01
2013-9-17,69.3,54.7,43.2,52.1,46.5,41.1,96,75,47,30.16,29.96,5,0,0,0.00
2013-9-18,77.6,64.4,53.1,61.0,54.4,47.0,87,71,50,29.96,29.76,6,0,0,0.03
2013-9-19,68.8,66.2,64.5,67.9,64.4,60.7,98,94,81,29.81,29.64,3,0,0,1.23
2013-9-20,71.5,68.5,62.1,68.2,64.5,56.5,91,87,82,29.61,29.53,4,0,0,0.00
2013-9-21,65.5,58.8,54.5,57.6,52.2,47.7,95,80,57,29.69,29.53,9,0,0,0.03
2013-9-22,63.9,53.9,43.8,50.1,45.9,41.9,93,75,51,29.86,29.69,10,0,0,0.00
2013-9-23,65.8,51.3,39.9,51.0,44.2,38.3,97,79,48,29.94,29.85,5,0,0,0.00
2013-9-24,67.3,53.4,43.5,51.3,45.8,41.3,96,77,46,29.91,29.75,10,0,0,0.00
2013-9-25,70.4,56.6,46.8,54.4,48.9,43.9,97,77,48,29.77,29.71,4,0,0,0.00
2013-9-26,74.4,58.6,47.4,55.1,48.9,44.3,97,73,36,29.89,29.75,5,0,0,0.01
2013-9-27,76.0,60.5,47.7,56.7,49.9,43.1,91,70,39,29.99,29.89,4,0,0,0.00
2013-9-28,77.9,63.9,51.7,58.3,53.5,49.5,95,71,45,29.93,29.74,6,0,0,0.00
2013-9-29,68.3,61.5,51.6,59.6,54.4,48.6,94,78,59,29.80,29.70,5,0,0,0.19
2013-9-30,69.4,55.7,45.2,54.9,48.8,43.0,97,79,46,29.81,29.70,6,0,0,0.00
2013-10-1,72.1,62.9,53.8,64.1,59.3,50.7,97,89,73,29.79,29.70,10,0,0,0.01
2013-10-2,78.3,66.9,61.5,62.0,57.4,49.2,96,74,40,29.87,29.75,6,0,0,0.00
2013-10-3,71.3,65.4,59.9,69.6,62.5,53.7,96,90,76,29.81,29.67,6,0,0,0.23
2013-10-4,77.4,69.5,63.2,71.8,66.3,61.6,96,90,77,29.79,29.69,7,0,0,0.00
2013-10-5,76.8,68.5,64.5,71.8,66.2,63.0,97,93,77,29.75,29.59,6,0,0,0.35
2013-10-6,66.3,58.5,46.5,65.1,55.8,40.6,97,91,75,29.61,29.47,0,0,0,0.39
2013-10-7,59.0,48.6,42.8,50.9,43.8,39.7,93,84,65,29.91,29.54,10,0,0,0.01
2013-10-8,68.4,53.9,44.1,53.2,47.0,42.2,97,79,47,30.02,29.91,1,0,0,0.01
2013-10-9,67.1,53.6,42.8,49.9,45.1,40.1,95,75,40,30.07,29.96,4,0,0,0.00
2013-10-10,69.6,54.2,44.6,53.4,47.0,42.0,95,78,47,29.99,29.88,1,0,0,0.00
2013-10-11,70.6,56.3,45.8,52.3,47.1,43.1,96,74,39,29.92,29.80,1,0,0,0.00
2013-10-12,74.2,61.2,50.8,61.1,53.9,47.3,96,78,52,29.91,29.78,6,0,0,0.05
2013-10-13,60.7,52.1,42.5,56.5,44.3,38.3,96,76,49,30.18,29.91,6,0,0,0.01
2013-10-14,60.9,49.2,40.1,46.3,41.9,37.7,96,78,51,30.20,30.00,4,0,0,0.00
2013-10-15,62.4,54.5,44.9,60.6,51.6,42.4,96,90,81,30.00,29.60,4,0,0,0.17
2013-10-16,60.9,50.2,43.8,59.8,46.9,41.7,96,88,81,29.72,29.61,10,0,0,0.00
2013-10-17,50.5,48.2,41.5,48.6,45.4,39.2,93,90,87,29.71,29.59,9,0,0,0.13
2013-10-18,56.2,44.7,37.5,47.4,40.6,36.2,97,86,69,29.76,29.66,3,0,0,0.00
2013-10-19,52.5,44.9,41.6,44.5,38.5,31.0,95,79,44,29.72,29.57,11,0,0,0.16
2013-10-20,57.6,48.6,38.9,45.0,40.1,35.7,90,73,57,29.70,29.57,13,0,0,0.01
2013-10-21,55.6,48.2,40.1,47.4,40.5,28.1,91,75,61,29.73,29.60,7,0,0,0.03
2013-10-22,46.7,37.9,29.4,33.0,29.4,24.4,87,72,50,29.77,29.69,6,0,0,0.01
2013-10-23,41.1,37.1,34.3,38.7,33.7,30.3,93,87,69,29.79,29.64,6,0,0,0.11
2013-10-24,40.1,35.3,32.8,38.0,33.0,30.4,96,91,85,30.06,29.78,5,0,0,0.24
2013-10-25,45.4,37.0,30.4,39.0,30.9,27.6,96,80,53,30.17,29.90,8,0,0,0.05
2013-10-26,50.1,43.2,39.3,40.3,33.3,27.3,83,68,58,29.90,29.62,11,0,0,0.01
2013-10-27,51.1,41.3,31.3,36.7,31.6,27.8,94,70,45,29.87,29.78,7,0,0,0.01
2013-10-28,54.8,41.9,30.6,39.0,33.4,27.3,95,73,50,30.15,29.84,5,0,0,0.00
2013-10-29,53.5,42.6,33.7,40.9,35.8,30.2,89,78,58,30.19,29.98,2,0,0,0.00
2013-10-30,59.8,50.6,39.2,56.4,46.2,36.3,95,85,76,29.98,29.63,3,0,0,0.63
2013-10-31,62.6,59.2,51.4,61.7,58.5,50.6,98,98,95,29.62,28.98,11,0,0,1.36
2013-11-1,51.4,46.0,43.5,50.6,42.6,39.3,97,88,75,29.49,29.06,11,0,0,0.06
2013-11-2,46.4,43.5,39.5,45.3,41.5,36.8,96,93,83,29.88,29.49,5,0,0,0.11
2013-11-3,48.0,41.1,37.8,38.0,36.6,33.9,95,85,61,30.14,29.88,6,0,0,0.01
2013-11-4,51.4,44.8,37.9,41.4,36.3,33.2,84,73,58,30.16,29.99,6,0,0,0.00
2013-11-5,54.5,51.5,48.6,48.1,44.2,40.7,82,76,69,30.11,29.86,4,0,0,0.00
2013-11-6,56.2,50.3,40.3,53.4,46.8,39.0,96,88,65,29.88,29.59,11,0,0,0.43
2013-11-7,44.1,38.1,31.6,39.0,31.4,27.8,95,78,55,30.00,29.85,9,0,0,0.00
2013-11-8,44.5,37.8,29.1,32.5,29.9,26.5,93,74,53,30.12,29.89,5,0,0,0.01
2013-11-9,57.0,48.6,41.6,41.0,35.6,29.8,67,61,51,29.91,29.66,13,1,0,0.00
2013-11-10,47.3,40.5,33.2,33.7,30.0,27.1,86,66,55,30.10,29.79,14,0,0,0.00
2013-11-11,44.9,37.4,27.6,38.2,31.0,23.7,91,78,64,30.18,29.88,10,0,0,0.01
2013-11-12,31.6,26.6,21.9,26.8,21.2,16.9,88,80,70,30.42,30.17,6,0,0,0.00
2013-11-13,35.8,26.6,18.3,20.7,16.9,13.1,85,68,42,30.39,30.01,12,0,12,0.00
2013-11-14,49.8,38.5,30.1,25.6,21.3,18.1,62,51,35,30.02,29.77,11,0,11,0.00
2013-11-15,49.8,43.4,37.5,33.2,27.7,23.1,71,54,41,29.83,29.76,10,0,10,0.00
2013-11-16,56.7,47.6,37.5,55.3,43.3,29.9,95,85,71,29.80,29.46,13,1,0,0.02
2013-11-17,62.9,56.7,45.2,60.2,53.4,36.9,96,89,70,29.47,29.01,18,1,0,0.00
2013-11-18,45.2,38.8,34.9,37.4,30.2,24.7,83,71,64,29.99,29.44,10,0,0,0.00
2013-11-19,42.1,35.4,30.0,26.8,24.9,22.7,79,66,50,30.15,29.98,7,0,0,0.00
2013-11-20,41.9,35.1,28.2,35.5,26.4,22.5,86,71,53,30.15,29.95,11,1,0,0.02
2013-11-21,49.5,44.4,38.9,44.4,40.3,34.1,96,86,74,30.01,29.94,6,0,0,0.37
2013-11-22,45.5,38.0,26.7,44.4,35.8,23.4,98,92,82,30.22,29.94,9,1,0,0.06
2013-11-23,28.5,24.2,18.1,24.5,18.1,10.6,91,78,61,30.41,30.15,17,1,0,0.00
2013-11-24,27.5,19.2,15.2,20.2,12.7,5.1,89,76,55,30.46,30.24,5,0,0,0.01
2013-11-25,31.8,25.1,17.2,25.3,15.6,6.3,89,68,50,30.25,29.91,11,0,0,0.00
2013-11-26,33.7,29.7,26.0,26.8,23.9,18.5,88,79,64,29.91,29.77,11,0,0,0.00
2013-11-27,27.3,24.1,20.2,23.4,20.6,16.7,90,86,80,30.03,29.82,7,0,0,0.00
2013-11-28,30.4,23.9,19.9,20.6,17.8,15.8,90,78,58,30.24,30.01,4,0,0,0.00
2013-11-29,33.1,28.0,24.8,23.4,20.0,17.8,83,72,56,30.43,30.23,4,0,0,0.02
2013-11-30,44.8,34.8,27.0,30.0,25.5,20.8,81,69,54,30.29,29.87,6,0,0,0.15
2013-12-1,41.2,34.7,28.4,33.9,27.8,24.1,88,76,64,29.88,29.79,9,0,0,0.01
2013-12-2,40.1,33.4,27.6,30.0,27.2,24.2,91,79,57,29.80,29.62,7,0,0,0.00
2013-12-3,47.0,40.0,33.1,45.2,38.3,29.5,96,93,85,29.62,29.52,8,1,0,0.14
2013-12-4,57.0,49.5,43.5,55.8,48.4,42.2,98,96,92,29.58,29.36,10,1,0,0.01
2013-12-5,56.7,38.1,29.3,53.6,30.2,20.4,91,73,67,29.99,29.37,11,0,0,0.00
2013-12-6,29.3,29.0,23.0,20.4,20.1,13.4,69,69,66,30.24,29.98,2,0,0,0.00
2013-12-7,23.2,19.6,12.4,15.5,11.5,7.0,81,70,60,30.44,30.24,9,0,0,0.00
2013-12-8,25.3,19.9,12.1,22.9,14.4,7.6,91,79,65,30.38,29.76,11,0,0,0.00
2013-12-9,26.0,22.1,14.4,23.7,16.4,5.8,91,79,66,29.98,29.71,9,0,0,0.00
2013-12-10,23.0,13.7,1.1,10.7,4.3,-5.8,73,66,57,30.08,29.82,15,0,0,0.00
2013-12-11,25.3,17.1,11.6,19.8,11.4,5.2,85,78,67,30.30,30.06,7,0,0,0.00
2013-12-12,16.7,9.4,-3.1,8.9,1.5,-10.1,81,70,56,30.31,30.05,11,0,0,0.00
2013-12-13,29.5,21.1,9.7,21.7,14.1,5.0,85,75,61,30.07,29.94,5,0,0,0.02
2013-12-14,27.0,23.2,19.7,22.6,19.7,16.2,90,87,82,29.96,29.66,11,0,0,0.00
2013-12-15,24.1,18.0,10.7,21.6,13.9,5.5,90,83,78,29.89,29.69,14,0,0,0.00
2013-12-16,21.4,14.0,3.9,13.7,8.6,-1.1,87,79,67,29.98,29.81,4,0,0,0.00
2013-12-17,26.4,22.0,17.2,23.3,18.8,13.2,89,87,84,29.84,29.74,7,0,0,0.00
2013-12-18,29.4,23.3,18.1,22.5,16.2,12.9,87,75,61,29.99,29.68,11,0,0,0.00
2013-12-19,44.1,37.6,29.5,36.2,32.3,19.2,93,81,72,29.75,29.62,10,0,0,0.40
2013-12-20,41.9,38.3,34.3,41.1,37.5,33.8,98,97,93,29.63,29.49,3,0,0,0.38
2013-12-21,35.3,33.7,32.1,34.8,33.2,31.6,98,98,98,29.62,29.37,7,0,0,0.55
2013-12-22,34.1,32.4,29.5,33.6,31.8,28.8,98,98,97,29.83,29.32,7,0,0,0.19
2013-12-23,30.0,22.8,8.1,28.8,17.8,1.5,97,81,67,30.21,29.81,10,0,0,0.00
2013-12-24,17.3,9.7,3.7,10.4,3.2,-2.7,82,74,67,30.36,30.20,5,0,0,0.00
2013-12-25,26.0,22.1,15.4,23.5,16.5,9.9,90,79,70,30.27,29.89,9,0,0,0.00
2013-12-26,31.2,25.2,20.2,25.3,19.9,14.8,91,81,63,30.09,29.86,6,0,0,0.00
2013-12-27,40.3,34.4,28.4,31.2,27.7,25.0,89,77,61,30.10,29.89,11,0,0,0.07
2013-12-28,48.8,39.1,32.2,33.9,30.7,27.7,87,72,54,29.91,29.67,10,0,0,0.02
2013-12-29,39.1,32.4,21.4,31.2,26.0,17.9,87,77,64,29.88,29.55,13,1,0,0.00
2013-12-30,21.9,17.5,12.9,17.8,10.5,6.4,86,74,61,30.09,29.86,6,0,0,0.00
2013-12-31,16.4,13.7,12.8,10.6,7.9,4.2,83,77,62,30.15,29.94,3,0,0,0.00
2014-1-1,18.6,15.1,11.9,12.6,10.6,7.5,85,82,77,30.13,29.98,8,0,0,0.00
2014-1-2,14.6,11.0,-1.2,9.2,4.8,-7.9,85,76,62,30.18,29.88,14,1,0,0.00